Stündliche Wetter Bolshie Lupyazhi

Heute, 13 Mai, Donnerstag

Zeit Temperatur Niederschläge Wind Luftdruck Luftfeuchtigkeit
00:00 +10°C° 0 mm 2 m/S 755 mmHg 94%
01:00 +9°C° 0 mm 2 m/S 755 mmHg 94%
02:00 +10°C° 0 mm 1 m/S 756 mmHg 94%
03:00 +9°C° 0 mm 1 m/S 755 mmHg 94%
04:00 +9°C° 0 mm 1 m/S 755 mmHg 94%
05:00 +9°C° 0 mm 1 m/S 755 mmHg 93%
06:00 +10°C° 0 mm 1 m/S 755 mmHg 93%
07:00 +12°C° 0 mm 2 m/S 755 mmHg 86%
08:00 +14°C° 0 mm 2 m/S 755 mmHg 78%
09:00 +16°C° 0 mm 2 m/S 755 mmHg 71%
10:00 +17°C° 0 mm 2 m/S 754 mmHg 65%
11:00 +19°C° 0 mm 2 m/S 754 mmHg 59%
12:00 +20°C° 0 mm 3 m/S 753 mmHg 53%
13:00 +20°C° 0.1 mm 2 m/S 753 mmHg 54%
14:00 +20°C° 0.1 mm 2 m/S 752 mmHg 55%
15:00 +20°C° 0.1 mm 2 m/S 752 mmHg 56%
16:00 +20°C° 0 mm 2 m/S 752 mmHg 59%
17:00 +20°C° 0 mm 2 m/S 752 mmHg 62%
18:00 +20°C° 0 mm 2 m/S 752 mmHg 65%
19:00 +19°C° 0 mm 1 m/S 752 mmHg 71%
20:00 +16°C° 0 mm 1 m/S 752 mmHg 76%
21:00 +14°C° 0 mm 1 m/S 752 mmHg 82%
22:00 +13°C° 0 mm 1 m/S 753 mmHg 83%
23:00 +13°C° 0 mm 1 m/S 753 mmHg 84%

Morgen, 14 Mai, Freitag

Zeit Temperatur Niederschläge Wind Luftdruck Luftfeuchtigkeit
00:00 +13°C° 0 mm 2 m/S 753 mmHg 85%
01:00 +13°C° 0 mm 2 m/S 753 mmHg 86%
02:00 +12°C° 0 mm 2 m/S 753 mmHg 87%
03:00 +12°C° 0 mm 2 m/S 753 mmHg 88%
04:00 +13°C° 0 mm 2 m/S 754 mmHg 88%
05:00 +13°C° 0 mm 2 m/S 754 mmHg 87%
06:00 +13°C° 0 mm 1 m/S 754 mmHg 87%
07:00 +15°C° 0 mm 2 m/S 754 mmHg 83%
08:00 +16°C° 0 mm 2 m/S 754 mmHg 78%
09:00 +18°C° 0 mm 3 m/S 754 mmHg 74%
10:00 +19°C° 0 mm 3 m/S 754 mmHg 68%
11:00 +21°C° 0 mm 4 m/S 754 mmHg 63%
12:00 +23°C° 0 mm 4 m/S 754 mmHg 57%
13:00 +23°C° 0 mm 4 m/S 753 mmHg 56%
14:00 +25°C° 0 mm 4 m/S 753 mmHg 55%
15:00 +25°C° 0 mm 4 m/S 752 mmHg 54%
16:00 +23°C° 0 mm 4 m/S 752 mmHg 61%
17:00 +22°C° 0 mm 3 m/S 752 mmHg 68%
18:00 +21°C° 0 mm 2 m/S 752 mmHg 75%
19:00 +21°C° 0 mm 3 m/S 751 mmHg 76%
20:00 +20°C° 0 mm 3 m/S 751 mmHg 78%
21:00 +19°C° 0 mm 4 m/S 750 mmHg 79%
22:00 +18°C° 0.4 mm 3 m/S 750 mmHg 84%
23:00 +18°C° 0.4 mm 3 m/S 750 mmHg 89%

übermorgen, 15 Mai, Samstag

Zeit Temperatur Niederschläge Wind Luftdruck Luftfeuchtigkeit
00:00 +17°C° 0.4 mm 3 m/S 750 mmHg 94%
01:00 +17°C° 0.1 mm 2 m/S 750 mmHg 94%
02:00 +16°C° 0.1 mm 2 m/S 749 mmHg 94%
03:00 +16°C° 0.1 mm 2 m/S 749 mmHg 94%
04:00 +17°C° 0 mm 2 m/S 749 mmHg 94%
05:00 +17°C° 0 mm 2 m/S 749 mmHg 93%
06:00 +17°C° 0 mm 2 m/S 749 mmHg 93%
07:00 +18°C° 0 mm 3 m/S 749 mmHg 88%
08:00 +20°C° 0 mm 3 m/S 749 mmHg 83%
09:00 +21°C° 0 mm 4 m/S 749 mmHg 78%
10:00 +22°C° 0 mm 4 m/S 749 mmHg 75%
11:00 +23°C° 0 mm 4 m/S 749 mmHg 72%
12:00 +25°C° 0 mm 4 m/S 749 mmHg 68%
13:00 +23°C° 0.5 mm 4 m/S 749 mmHg 72%
14:00 +22°C° 0.5 mm 4 m/S 749 mmHg 77%
15:00 +22°C° 0.5 mm 4 m/S 749 mmHg 81%
16:00 +21°C° 0.3 mm 4 m/S 749 mmHg 79%
17:00 +21°C° 0.3 mm 4 m/S 749 mmHg 78%
18:00 +21°C° 0.3 mm 5 m/S 750 mmHg 76%
19:00 +20°C° 0 mm 4 m/S 750 mmHg 81%
20:00 +18°C° 0 mm 3 m/S 750 mmHg 86%
21:00 +16°C° 0 mm 2 m/S 750 mmHg 91%
22:00 +16°C° 0 mm 2 m/S 750 mmHg 92%
23:00 +15°C° 0 mm 2 m/S 751 mmHg 92%

16 Mai, Sonntag

Zeit Temperatur Niederschläge Wind Luftdruck Luftfeuchtigkeit
00:00 +14°C° 0 mm 2 m/S 751 mmHg 93%
01:00 +14°C° 0 mm 2 m/S 751 mmHg 94%
02:00 +13°C° 0 mm 2 m/S 751 mmHg 94%
03:00 +13°C° 0 mm 2 m/S 751 mmHg 94%
04:00 +14°C° 0 mm 1 m/S 752 mmHg 92%
05:00 +14°C° 0 mm 1 m/S 752 mmHg 91%
06:00 +15°C° 0 mm 1 m/S 752 mmHg 89%
07:00 +16°C° 0 mm 1 m/S 752 mmHg 82%
08:00 +19°C° 0 mm 1 m/S 752 mmHg 76%
09:00 +19°C° 0 mm 2 m/S 752 mmHg 69%
10:00 +20°C° 0 mm 2 m/S 752 mmHg 64%
11:00 +23°C° 0 mm 2 m/S 752 mmHg 59%
12:00 +24°C° 0 mm 2 m/S 752 mmHg 54%
13:00 +24°C° 0 mm 2 m/S 752 mmHg 53%
14:00 +25°C° 0 mm 2 m/S 752 mmHg 52%
15:00 +25°C° 0 mm 3 m/S 752 mmHg 51%
16:00 +25°C° 0 mm 2 m/S 752 mmHg 55%
17:00 +24°C° 0 mm 2 m/S 752 mmHg 60%
18:00 +24°C° 0 mm 2 m/S 752 mmHg 65%
19:00 +22°C° 0 mm 1 m/S 752 mmHg 71%
20:00 +20°C° 0 mm 1 m/S 752 mmHg 77%
21:00 +18°C° 0 mm 1 m/S 752 mmHg 83%
22:00 +16°C° 0 mm 1 m/S 752 mmHg 84%
23:00 +16°C° 0 mm 1 m/S 752 mmHg 85%

17 Mai, Montag

Zeit Temperatur Niederschläge Wind Luftdruck Luftfeuchtigkeit
00:00 +16°C° 0 mm 1 m/S 752 mmHg 86%
01:00 +15°C° 0 mm 1 m/S 752 mmHg 87%
02:00 +15°C° 0 mm 2 m/S 753 mmHg 87%
03:00 +15°C° 0 mm 2 m/S 753 mmHg 87%
04:00 +16°C° 0 mm 2 m/S 753 mmHg 87%
05:00 +16°C° 0 mm 2 m/S 753 mmHg 86%
06:00 +16°C° 0 mm 2 m/S 753 mmHg 86%
07:00 +18°C° 0 mm 2 m/S 753 mmHg 79%
08:00 +20°C° 0 mm 3 m/S 753 mmHg 72%
09:00 +22°C° 0 mm 4 m/S 752 mmHg 66%
10:00 +25°C° 0 mm 4 m/S 752 mmHg 62%
11:00 +26°C° 0 mm 4 m/S 752 mmHg 59%
12:00 +27°C° 0 mm 4 m/S 752 mmHg 56%
13:00 +28°C° 0 mm 4 m/S 752 mmHg 53%
14:00 +29°C° 0 mm 4 m/S 751 mmHg 50%
15:00 +29°C° 0 mm 3 m/S 751 mmHg 47%
16:00 +28°C° 0 mm 3 m/S 751 mmHg 51%
17:00 +27°C° 0 mm 3 m/S 751 mmHg 55%
18:00 +26°C° 0 mm 3 m/S 750 mmHg 60%
19:00 +24°C° 0 mm 3 m/S 751 mmHg 65%
20:00 +21°C° 0 mm 3 m/S 751 mmHg 71%
21:00 +19°C° 0 mm 3 m/S 751 mmHg 77%
22:00 +18°C° 0 mm 3 m/S 750 mmHg 79%
23:00 +18°C° 0 mm 3 m/S 750 mmHg 80%

18 Mai, Dienstag

Zeit Temperatur Niederschläge Wind Luftdruck Luftfeuchtigkeit
00:00 +17°C° 0 mm 3 m/S 750 mmHg 81%
01:00 +17°C° 0 mm 3 m/S 750 mmHg 80%
02:00 +17°C° 0 mm 3 m/S 750 mmHg 78%
03:00 +16°C° 0 mm 3 m/S 750 mmHg 77%
04:00 +17°C° 0 mm 3 m/S 750 mmHg 74%
05:00 +17°C° 0 mm 3 m/S 750 mmHg 71%
06:00 +18°C° 0 mm 4 m/S 750 mmHg 69%
07:00 +20°C° 0 mm 4 m/S 750 mmHg 63%
08:00 +22°C° 0 mm 4 m/S 750 mmHg 58%
09:00 +25°C° 0 mm 4 m/S 750 mmHg 52%
10:00 +26°C° 0 mm 5 m/S 750 mmHg 50%
11:00 +27°C° 0 mm 5 m/S 750 mmHg 48%
12:00 +28°C° 0 mm 5 m/S 750 mmHg 45%
13:00 +28°C° 0 mm 5 m/S 750 mmHg 45%
14:00 +29°C° 0 mm 5 m/S 750 mmHg 45%
15:00 +29°C° 0 mm 5 m/S 750 mmHg 44%
16:00 +28°C° 0 mm 5 m/S 750 mmHg 49%
17:00 +27°C° 0 mm 4 m/S 750 mmHg 54%
18:00 +26°C° 0 mm 4 m/S 750 mmHg 59%
19:00 +25°C° 0 mm 3 m/S 750 mmHg 66%
20:00 +22°C° 0 mm 3 m/S 750 mmHg 72%
21:00 +20°C° 0 mm 3 m/S 750 mmHg 79%
22:00 +19°C° 0 mm 3 m/S 750 mmHg 81%
23:00 +19°C° 0 mm 3 m/S 750 mmHg 84%
Mehr zeigen

Wir brauchen deine Erlaubnis

Meteoprog und unser Service Anbieter werden persönliche Daten aufbewahren, so wie Cookies, Geräte Bezeichnung oder ähnliche Technologien von deinem Gerät und Prozess, so wie Persönliche Daten Inhalte und Werbungen, genauso wie social Media und den Verkehr zu analysieren.

  • Aufbewahrung und/oder Zugang zu deiner Geräte Informationen.

    Cookies, Geräte Bezeichnung oder andere Informationen, können aufbewahrt oder Zugang zu deinem Gerät erhalten, für den Grund, der oben angegeben wird.

  • Personalisierte Werbung und Inhalte, Messungen, Einblick in das Publikum und Produkt Entwicklung.

    Werbungen und Inhalte können personalisiert werden, basierend auf ein Profil. Mehr Daten können besser personalisierte Werbungen und Inhalte hinzufügen. Werbung und Inhalte können gezeigt und gemessen werden. Einblicke über das Publikum, welche die Werbung gesehen haben und den Inhalt, können abgeleitet werden. So wie Daten können genutzt werden, um es zu verbessern oder die Benutzer Erfahrung zu verbessern das System und die Software.

Wenn du “Ich stimme zu” klickst, erlaubst du uns, die Cookies zu benutzen die Geräte Bezeichnung, den Web oder ähnliche Technologien zu benutzen. Deine Settings, können in deinem Gerät bei deinem Browser geändert werden.

Für den bestimmten Zweck, berechtigten Interessen beruhen darauf, mehr als auf den Inhalt. Du kannst mehr darüber in unseren Privaten und Cookie Politik lesen.